GW4151 Weather Reports


Display with metric or nautical units.
time (UTC)temp
F
wind
direction
speed
MPH
gust
MPH
rain 1hr
in
rain 24hr
in
rain mn
in
humidity
%
barometer
mb
20260903004642 80 196 0.0 0.0 0.00 0.00 0.00 83 992.2
20260903003140 81 240 1.0 1.0 0.00 0.00 0.00 82 992.3
20260903001636 82 190 2.0 4.0 0.00 0.00 0.00 79 992.1
20260903000131 82 251 3.0 4.0 0.00 0.00 0.00 79 992.3
20260902234631 83 223 4.0 4.0 0.00 0.00 0.00 78 992.1
20260902233131 84 194 2.0 7.0 0.00 0.00 0.00 77 992.4
20260902231630 84 241 2.0 4.0 0.00 0.00 0.00 76 992.3
20260902230130 84 290 4.0 8.0 0.00 0.00 0.00 75 992.4
20260902224629 85 224 2.0 6.0 0.00 0.00 0.00 73 992.5
20260902223126 87 266 4.0 8.0 0.00 0.00 0.00 71 992.4
20260902221624 86 233 3.0 8.0 0.00 0.00 0.00 70 992.6
20260902220121 88 287 2.0 6.0 0.00 0.00 0.00 68 992.5
20260902214619 88 223 3.0 9.0 0.00 0.00 0.00 65 992.5
20260902213118 89 211 6.0 9.0 0.00 0.00 0.00 63 992.2
20260902211618 89 173 6.0 9.0 0.00 0.00 0.00 64 992.5
20260902210114 89 219 4.0 6.0 0.00 0.00 0.00 64 992.5
20260902204614 90 247 3.0 8.0 0.00 0.00 0.00 61 992.7
20260902203110 89 268 7.0 9.0 0.00 0.00 0.00 61 992.6
20260902201609 90 237 4.0 11.0 0.00 0.00 0.00 60 992.9
20260902200106 93 215 3.0 7.0 0.00 0.00 0.00 57 992.6
20260902194605 93 259 5.0 9.0 0.00 0.00 0.00 57 992.5
20260902193102 91 196 3.0 6.0 0.00 0.00 0.00 63 992.9
20260902191601 92 267 4.0 6.0 0.00 0.00 0.00 60 993.0
20260902190058 91 206 5.0 8.0 0.00 0.00 0.00 62 993.3
20260902184556 90 204 4.0 8.0 0.00 0.00 0.00 63 992.9
20260902183056 91 219 5.0 10.0 0.00 0.00 0.00 63 992.8
20260902181556 90 203 4.0 8.0 0.00 0.00 0.00 65 993.1
20260902180051 90 270 0.0 6.0 0.00 0.00 0.00 67 993.5
20260902174548 90 192 2.0 7.0 0.00 0.00 0.00 67 993.6
20260902173044 91 154 2.0 6.0 0.00 0.00 0.00 68 993.7
20260902171541 89 196 3.0 6.0 0.00 0.00 0.00 71 994.1
20260902170039 90 206 4.0 4.0 0.00 0.00 0.00 68 994.1
20260902164534 89 213 2.0 3.0 0.00 0.00 0.00 72 994.1
20260902163033 87 229 2.0 4.0 0.00 0.00 0.00 75 994.2
20260902161529 87 91 4.0 7.0 0.00 0.00 0.00 76 994.0
20260902160027 86 165 2.0 3.0 0.00 0.00 0.00 78 994.1
20260902154526 86 122 2.0 3.0 0.00 0.00 0.00 77 994.0
20260902153027 84 155 2.0 3.0 0.00 0.00 0.00 77 994.3
20260902151526 86 142 2.0 6.0 0.00 0.00 0.00 76 994.1
20260902150021 84 178 1.0 1.0 0.00 0.00 0.00 79 994.2
20260902144519 83 256 3.0 6.0 0.00 0.00 0.00 80 994.5
20260902143016 82 198 2.0 3.0 0.00 0.00 0.00 81 994.3
20260902141512 82 231 4.0 6.0 0.00 0.00 0.00 84 994.5
20260902140009 81 35 2.0 3.0 0.00 0.00 0.00 86 994.7
20260902134505 80 176 2.0 7.0 0.00 0.00 0.00 89 994.9
20260902133001 81 274 3.0 6.0 0.00 0.00 0.00 86 994.6
20260902131458 80 172 1.0 3.0 0.00 0.00 0.00 87 993.7
20260902125954 77 120 2.0 2.0 0.00 0.00 0.00 92 994.0
20260902124454 76 196 0.0 2.0 0.00 0.00 0.00 93 994.1
20260902122949 75 156 0.0 0.0 0.00 0.00 0.00 95 994.5
20260902121447 74 173 1.0 1.0 0.00 0.00 0.00 97 994.2
20260902115943 73 172 0.0 0.0 0.00 0.00 0.00 98 994.6
20260902114443 73 180 0.0 0.0 0.00 0.00 0.00 98 994.6
20260902112939 73 210 0.0 1.0 0.00 0.00 0.00 98 994.6
20260902111440 73 183 0.0 0.0 0.00 0.00 0.00 97 994.6
20260902105937 74 183 0.0 0.0 0.00 0.00 0.00 96 994.2
20260902104434 75 212 1.0 1.0 0.00 0.00 0.00 95 994.3
20260902102930 75 203 0.0 1.0 0.00 0.00 0.00 95 994.0
20260902101429 75 201 0.0 1.0 0.00 0.00 0.00 94 994.2
20260902095924 75 197 0.0 2.0 0.00 0.00 0.00 95 994.3
20260902094420 75 219 0.0 2.0 0.00 0.00 0.00 94 994.1
20260902092920 76 201 0.0 0.0 0.00 0.00 0.00 94 994.3
20260902091417 76 237 0.0 0.0 0.00 0.00 0.00 94 994.5
20260902085912 76 189 0.0 2.0 0.00 0.00 0.00 92 994.4
20260902084411 77 192 1.0 2.0 0.00 0.00 0.00 92 993.8
20260902082907 77 197 1.0 1.0 0.00 0.00 0.00 91 993.7
20260902081407 77 211 2.0 6.0 0.00 0.00 0.00 91 993.7
20260902075903 78 234 2.0 4.0 0.00 0.00 0.00 90 993.5
20260902074402 78 209 1.0 4.0 0.00 0.00 0.00 90 993.8
20260902072900 78 249 1.0 3.0 0.00 0.00 0.00 90 993.8
20260902071358 78 174 0.0 1.0 0.00 0.00 0.00 91 993.8
20260902065854 78 219 2.0 2.0 0.00 0.00 0.00 92 993.9
20260902064353 78 213 1.0 2.0 0.00 0.00 0.00 93 993.7
20260902062848 77 224 0.0 1.0 0.00 0.00 0.00 95 993.8
20260902061348 77 234 0.0 0.0 0.00 0.00 0.00 96 993.7
20260902055847 77 195 0.0 0.0 0.00 0.00 0.00 96 993.7
20260902054346 76 186 0.0 0.0 0.00 0.00 0.00 98 993.5
20260902052841 76 197 0.0 0.0 0.00 0.00 0.00 98 993.6
20260902051337 77 178 0.0 0.0 0.00 0.00 0.00 97 993.6
20260902045838 77 192 0.0 0.0 0.00 0.00 0.00 97 993.8
20260902044337 77 172 0.0 3.0 0.00 0.00 0.00 96 993.9
20260902042832 77 158 2.0 3.0 0.00 0.00 0.00 96 993.7
20260902041327 76 166 0.0 0.0 0.00 0.00 0.00 95 993.8
20260902035826 75 232 3.0 3.0 0.00 0.01 0.01 97 993.7
20260902034322 74 212 1.0 1.0 0.00 0.00 0.00 97 994.1
20260902032820 74 182 0.0 0.0 0.00 0.00 0.00 98 994.0
20260902031317 74 142 0.0 0.0 0.00 0.00 0.00 98 993.8
20260902025812 74 128 0.0 0.0 0.00 0.00 0.00 98 993.9
20260902024309 74 166 0.0 0.0 0.00 0.00 0.00 97 994.0
20260902022805 74 171 0.0 0.0 0.00 0.00 0.00 97 994.1
20260902021302 74 180 0.0 0.0 0.00 0.00 0.00 97 994.1
20260902015801 74 182 0.0 1.0 0.00 0.00 0.00 97 994.0
20260902014302 74 174 0.0 0.0 0.00 0.00 0.00 96 993.9
20260902012757 75 172 0.0 0.0 0.00 0.00 0.00 96 993.9
20260902011254 75 191 0.0 0.0 0.00 0.00 0.00 96 993.7
20260902005753 75 170 0.0 0.0 0.00 0.00 0.00 95 993.4